TimeEST,TemperatureF,Dew PointF,Humidity,Sea Level PressureIn,VisibilityMPH,Wind Direction,Wind SpeedMPH,Gust SpeedMPH,PrecipitationIn,Events,Conditions,WindDirDegrees,DateUTC
12:53 AM,64.0,61.0,90,30.17,10.0,South,3.5,-,N/A,,Clear,180,2013-01-12 05:53:00
1:53 AM,61.0,59.0,93,30.17,7.0,Calm,Calm,-,N/A,,Clear,0,2013-01-12 06:53:00
3:53 AM,57.9,57.0,97,30.17,6.0,Calm,Calm,-,N/A,,Clear,0,2013-01-12 08:53:00
4:53 AM,57.0,55.9,96,30.15,5.0,Calm,Calm,-,N/A,,Clear,0,2013-01-12 09:53:00
5:53 AM,57.0,55.0,93,30.16,5.0,Calm,Calm,-,N/A,,Clear,0,2013-01-12 10:53:00
6:25 AM,55.4,55.4,100,30.16,4.0,Calm,Calm,-,N/A,,Scattered Clouds,0,2013-01-12 11:25:00
6:53 AM,55.0,54.0,96,30.16,5.0,Calm,Calm,-,N/A,,Partly Cloudy,0,2013-01-12 11:53:00
7:53 AM,55.9,54.0,93,30.18,4.0,Calm,Calm,-,N/A,,Clear,0,2013-01-12 12:53:00
8:53 AM,62.1,60.1,93,30.20,5.0,Calm,Calm,-,N/A,,Clear,0,2013-01-12 13:53:00
9:53 AM,68.0,61.0,78,30.20,10.0,South,3.5,-,N/A,,Clear,190,2013-01-12 14:53:00
10:53 AM,70.0,61.0,73,30.19,10.0,SSW,3.5,-,N/A,,Clear,210,2013-01-12 15:53:00
11:53 AM,73.0,61.0,66,30.17,10.0,SW,3.5,-,N/A,,Clear,230,2013-01-12 16:53:00
12:53 PM,78.1,57.9,50,30.14,10.0,SW,10.4,-,N/A,,Clear,230,2013-01-12 17:53:00
1:53 PM,79.0,57.0,47,30.13,10.0,West,9.2,-,N/A,,Clear,260,2013-01-12 18:53:00
2:53 PM,80.1,57.9,47,30.12,10.0,WSW,5.8,-,N/A,,Clear,240,2013-01-12 19:53:00
3:53 PM,80.1,57.0,45,30.12,10.0,SW,4.6,-,N/A,,Clear,230,2013-01-12 20:53:00
4:53 PM,79.0,57.9,48,30.11,10.0,Calm,Calm,-,N/A,,Clear,0,2013-01-12 21:53:00
5:53 PM,75.0,57.9,55,30.12,10.0,Calm,Calm,-,N/A,,Clear,0,2013-01-12 22:53:00
6:53 PM,68.0,60.1,76,30.12,10.0,Calm,Calm,-,N/A,,Clear,0,2013-01-12 23:53:00
8:53 PM,63.0,57.9,84,30.11,10.0,Calm,Calm,-,N/A,,Clear,0,2013-01-13 01:53:00
9:53 PM,62.1,57.9,86,30.12,10.0,Calm,Calm,-,N/A,,Clear,0,2013-01-13 02:53:00
10:53 PM,60.1,57.0,90,30.12,6.0,Calm,Calm,-,N/A,,Clear,0,2013-01-13 03:53:00
11:53 PM,59.0,57.0,93,30.12,6.0,Calm,Calm,-,N/A,,Clear,0,2013-01-13 04:53:00